Year,Month,Day,Hour,Minute,Value (Times are PST for temperature in C)
2020,09,27,00,00,9.70
2020,09,27,00,01,9.70
2020,09,27,00,02,9.70
2020,09,27,00,03,9.70
2020,09,27,00,04,9.70
2020,09,27,00,05,9.60
2020,09,27,00,06,9.60
2020,09,27,00,07,9.60
2020,09,27,00,08,9.50
2020,09,27,00,09,9.50
2020,09,27,00,10,9.50
2020,09,27,00,11,9.40
2020,09,27,00,12,9.40
2020,09,27,00,13,9.40
2020,09,27,00,14,9.40
2020,09,27,00,15,9.40
2020,09,27,00,16,9.40
2020,09,27,00,17,9.40
2020,09,27,00,18,9.40
2020,09,27,00,19,9.40
2020,09,27,00,20,9.40
2020,09,27,00,21,9.30
2020,09,27,00,22,9.30
2020,09,27,00,23,9.30
2020,09,27,00,24,9.40
2020,09,27,00,25,9.40
2020,09,27,00,26,9.40
2020,09,27,00,27,9.40
2020,09,27,00,28,9.40
2020,09,27,00,29,9.40
2020,09,27,00,30,9.30
2020,09,27,00,31,9.30
2020,09,27,00,32,9.30
2020,09,27,00,33,9.30
2020,09,27,00,34,9.20
2020,09,27,00,35,9.20
2020,09,27,00,36,9.20
2020,09,27,00,37,9.20
2020,09,27,00,38,9.20
2020,09,27,00,39,9.20
2020,09,27,00,40,9.20
2020,09,27,00,41,9.20
2020,09,27,00,42,9.10
2020,09,27,00,43,9.10
2020,09,27,00,44,9.10
2020,09,27,00,45,9.10
2020,09,27,00,46,9.10
2020,09,27,00,47,9.10
2020,09,27,00,48,9.10
2020,09,27,00,49,9.10
2020,09,27,00,50,9.00
2020,09,27,00,51,9.00
2020,09,27,00,52,9.00
2020,09,27,00,53,9.00
2020,09,27,00,54,9.00
2020,09,27,00,55,9.00
2020,09,27,00,56,9.00
2020,09,27,00,57,9.00
2020,09,27,00,58,9.00
2020,09,27,00,59,9.00
2020,09,27,01,00,9.00
2020,09,27,01,01,9.00
2020,09,27,01,02,8.90
2020,09,27,01,03,8.90
2020,09,27,01,04,8.90
2020,09,27,01,05,8.90
2020,09,27,01,06,8.80
2020,09,27,01,07,8.80
2020,09,27,01,08,8.80
2020,09,27,01,09,8.70
2020,09,27,01,10,8.70
2020,09,27,01,11,8.70
2020,09,27,01,12,8.70
2020,09,27,01,13,8.70
2020,09,27,01,14,8.70
2020,09,27,01,15,8.70
2020,09,27,01,16,8.60
2020,09,27,01,17,8.60
2020,09,27,01,18,8.60
2020,09,27,01,19,8.60
2020,09,27,01,20,8.60
2020,09,27,01,21,8.70
2020,09,27,01,22,8.70
2020,09,27,01,23,8.70
2020,09,27,01,24,8.70
2020,09,27,01,25,8.70
2020,09,27,01,26,8.70
2020,09,27,01,27,8.70
2020,09,27,01,28,8.70
2020,09,27,01,29,8.70
2020,09,27,01,30,8.70
2020,09,27,01,31,8.70
2020,09,27,01,32,8.70
2020,09,27,01,33,8.70
2020,09,27,01,34,8.70
2020,09,27,01,35,8.70
2020,09,27,01,36,8.70
2020,09,27,01,37,8.70
2020,09,27,01,38,8.70
2020,09,27,01,39,8.70
2020,09,27,01,40,8.70
2020,09,27,01,58,8.80
2020,09,27,01,59,8.80
2020,09,27,02,00,8.90
2020,09,27,02,01,8.90
2020,09,27,02,02,8.90
2020,09,27,02,03,8.90
2020,09,27,02,04,8.90
2020,09,27,02,05,9.00
2020,09,27,02,06,9.00
2020,09,27,02,07,9.00
2020,09,27,02,08,9.00
2020,09,27,02,09,9.10
2020,09,27,02,10,9.10
2020,09,27,02,11,9.10
2020,09,27,02,12,9.10
2020,09,27,02,13,9.10
2020,09,27,02,14,9.20
2020,09,27,02,15,9.20
2020,09,27,02,16,9.20
2020,09,27,02,17,9.20
2020,09,27,02,18,9.20
2020,09,27,02,19,9.20
2020,09,27,02,20,9.20
2020,09,27,02,21,9.30
2020,09,27,02,22,9.30
2020,09,27,02,23,9.30
2020,09,27,02,24,9.30
2020,09,27,02,25,9.40
2020,09,27,02,26,9.40
2020,09,27,02,27,9.40
2020,09,27,02,28,9.40
2020,09,27,02,29,9.40
2020,09,27,02,30,9.40
2020,09,27,02,31,9.40
2020,09,27,02,32,9.50
2020,09,27,02,33,9.50
2020,09,27,02,34,9.50
2020,09,27,02,35,9.50
2020,09,27,02,36,9.50
2020,09,27,02,37,9.50
2020,09,27,02,38,9.50
2020,09,27,02,39,9.60
2020,09,27,02,40,9.60
2020,09,27,02,41,9.60
2020,09,27,02,42,9.60
2020,09,27,02,43,9.60
2020,09,27,02,44,9.60
2020,09,27,02,45,9.60
2020,09,27,02,46,9.60
2020,09,27,02,47,9.60
2020,09,27,02,48,9.60
2020,09,27,02,49,9.60
2020,09,27,02,50,9.60
2020,09,27,02,51,9.60
2020,09,27,02,52,9.60
2020,09,27,02,53,9.60
2020,09,27,02,54,9.60
2020,09,27,02,55,9.60
2020,09,27,02,56,9.60
2020,09,27,02,57,9.50
2020,09,27,02,58,9.50
2020,09,27,02,59,9.50
2020,09,27,03,00,9.50
2020,09,27,03,01,9.50
2020,09,27,03,02,9.50
2020,09,27,03,03,9.50
2020,09,27,03,04,9.40
2020,09,27,03,05,9.40
2020,09,27,03,06,9.40
2020,09,27,03,07,9.40
2020,09,27,03,08,9.30
2020,09,27,03,09,9.30
2020,09,27,03,10,9.30
2020,09,27,03,11,9.30
2020,09,27,03,12,9.20
2020,09,27,03,13,9.20
2020,09,27,03,14,9.20
2020,09,27,03,15,9.20
2020,09,27,03,16,9.20
2020,09,27,03,17,9.20
2020,09,27,03,18,9.20
2020,09,27,03,19,9.10
2020,09,27,03,20,9.10
2020,09,27,03,21,9.10
2020,09,27,03,22,9.10
2020,09,27,03,23,9.00
2020,09,27,03,24,9.00
2020,09,27,03,25,9.00
2020,09,27,03,26,9.00
2020,09,27,03,27,9.00
2020,09,27,03,28,9.00
2020,09,27,03,29,9.00
2020,09,27,03,30,9.00
2020,09,27,03,31,9.00
2020,09,27,03,32,9.00
2020,09,27,03,33,9.00
2020,09,27,03,34,9.00
2020,09,27,03,35,9.00
2020,09,27,03,36,9.00
2020,09,27,03,37,9.00
2020,09,27,03,38,9.00
2020,09,27,03,39,8.90
2020,09,27,03,40,8.90
2020,09,27,03,41,8.90
2020,09,27,03,42,8.90
2020,09,27,03,43,8.80
2020,09,27,03,44,8.80
2020,09,27,03,45,8.70
2020,09,27,03,46,8.70
2020,09,27,03,47,8.70
2020,09,27,03,48,8.70
2020,09,27,03,49,8.70
2020,09,27,03,50,8.70
2020,09,27,03,51,8.70
2020,09,27,03,52,8.70
2020,09,27,03,53,8.80
2020,09,27,03,54,8.80
2020,09,27,03,55,8.80
2020,09,27,03,56,8.80
2020,09,27,03,57,8.80
2020,09,27,03,58,8.80
2020,09,27,03,59,8.80
2020,09,27,04,00,8.80
2020,09,27,04,01,8.70
2020,09,27,04,02,8.70
2020,09,27,04,03,8.70
2020,09,27,04,04,8.70
2020,09,27,04,05,8.70
2020,09,27,04,06,8.60
2020,09,27,04,07,8.60
2020,09,27,04,08,8.60
2020,09,27,04,09,8.50
2020,09,27,04,10,8.50
2020,09,27,04,11,8.50
2020,09,27,04,12,8.50
2020,09,27,04,13,8.50
2020,09,27,04,14,8.50
2020,09,27,04,15,8.40
2020,09,27,04,16,8.40
2020,09,27,04,17,8.40
2020,09,27,04,18,8.40
2020,09,27,04,19,8.40
2020,09,27,04,20,8.40
2020,09,27,04,21,8.40
2020,09,27,04,22,8.40
2020,09,27,04,23,8.40
2020,09,27,04,24,8.40
2020,09,27,04,25,8.40
2020,09,27,04,26,8.50
2020,09,27,04,27,8.50
2020,09,27,04,28,8.50
2020,09,27,04,29,8.50
2020,09,27,04,30,8.50
2020,09,27,04,31,8.50
2020,09,27,04,32,8.50
2020,09,27,04,33,8.50
2020,09,27,04,34,8.50
2020,09,27,04,35,8.40
2020,09,27,04,36,8.40
2020,09,27,04,37,8.40
2020,09,27,04,38,8.40
2020,09,27,04,39,8.40
2020,09,27,04,40,8.30
2020,09,27,04,41,8.30
2020,09,27,04,42,8.30
2020,09,27,04,43,8.20
2020,09,27,04,44,8.20
2020,09,27,04,45,8.20
2020,09,27,04,46,8.20
2020,09,27,04,47,8.20
2020,09,27,04,48,8.20
2020,09,27,04,49,8.10
2020,09,27,04,50,8.10
2020,09,27,04,51,8.10
2020,09,27,04,52,8.10
2020,09,27,04,53,8.10
2020,09,27,04,54,8.10
2020,09,27,04,55,8.10
2020,09,27,04,56,8.10
2020,09,27,04,57,8.00
2020,09,27,04,58,8.00
2020,09,27,04,59,8.10
2020,09,27,05,00,8.10
2020,09,27,05,01,8.10
2020,09,27,05,02,8.10
2020,09,27,05,03,8.10
2020,09,27,05,04,8.10
2020,09,27,05,05,8.10
2020,09,27,05,06,8.10
2020,09,27,05,07,8.10
2020,09,27,05,08,8.10
2020,09,27,05,09,8.20
2020,09,27,05,10,8.20
2020,09,27,05,11,8.20
2020,09,27,05,12,8.20
2020,09,27,05,13,8.20
2020,09,27,05,14,8.20
2020,09,27,05,15,8.20
2020,09,27,05,16,8.20
2020,09,27,05,17,8.20
2020,09,27,05,18,8.20
2020,09,27,05,19,8.20
2020,09,27,05,20,8.20
2020,09,27,05,21,8.20
2020,09,27,05,22,8.20
2020,09,27,05,23,8.20
2020,09,27,05,24,8.20
2020,09,27,05,25,8.20
2020,09,27,05,26,8.20
2020,09,27,05,27,8.20
2020,09,27,05,28,8.20
2020,09,27,05,29,8.20
2020,09,27,05,30,8.20
2020,09,27,05,31,8.20
2020,09,27,05,32,8.20
2020,09,27,05,33,8.20
2020,09,27,05,34,8.20
2020,09,27,05,35,8.30
2020,09,27,05,36,8.30
2020,09,27,05,37,8.40
2020,09,27,05,38,8.40
2020,09,27,05,39,8.50
2020,09,27,05,40,8.50
2020,09,27,05,41,8.50
2020,09,27,05,42,8.60
2020,09,27,05,43,8.60
2020,09,27,05,44,8.60
2020,09,27,05,45,8.70
2020,09,27,05,46,8.70
2020,09,27,05,47,8.70
2020,09,27,05,48,8.70
2020,09,27,05,49,8.70
2020,09,27,05,50,8.70
2020,09,27,05,51,8.70
2020,09,27,05,52,8.70
2020,09,27,05,53,8.70
2020,09,27,05,54,8.70
2020,09,27,05,55,8.70
2020,09,27,05,56,8.70
2020,09,27,05,57,8.70
2020,09,27,05,58,8.70
2020,09,27,05,59,8.70
2020,09,27,06,00,8.70
2020,09,27,06,01,8.70
2020,09,27,06,02,8.70
2020,09,27,06,03,8.70
2020,09,27,06,04,8.70
2020,09,27,06,05,8.70
2020,09,27,06,06,8.70
2020,09,27,06,07,8.70
2020,09,27,06,08,8.70
2020,09,27,06,09,8.70
2020,09,27,06,10,8.70
2020,09,27,06,11,8.70
2020,09,27,06,12,8.70
2020,09,27,06,13,8.70
2020,09,27,06,14,8.70
2020,09,27,06,15,8.70
2020,09,27,06,16,8.70
2020,09,27,06,17,8.70
2020,09,27,06,18,8.70
2020,09,27,06,19,8.80
2020,09,27,06,20,8.80
2020,09,27,06,21,8.80
2020,09,27,06,22,8.80
2020,09,27,06,23,8.80
2020,09,27,06,24,8.80
2020,09,27,06,25,8.80
2020,09,27,06,26,8.80
2020,09,27,06,27,8.80
2020,09,27,06,28,8.80
2020,09,27,06,29,8.80
2020,09,27,06,30,8.80
2020,09,27,06,31,8.80
2020,09,27,06,32,8.80
2020,09,27,06,33,8.80
2020,09,27,06,34,8.80
2020,09,27,06,35,8.80
2020,09,27,06,36,8.80
2020,09,27,06,37,8.80
2020,09,27,06,38,8.80
2020,09,27,06,39,8.80
2020,09,27,06,40,8.80
2020,09,27,06,41,8.80
2020,09,27,06,42,8.80
2020,09,27,06,43,8.80
2020,09,27,06,44,8.90
2020,09,27,06,45,8.90
2020,09,27,06,46,8.90
2020,09,27,06,47,8.90
2020,09,27,06,48,9.00
2020,09,27,06,49,9.00
2020,09,27,06,50,9.00
2020,09,27,06,51,9.00
2020,09,27,06,52,9.10
2020,09,27,06,53,9.10
2020,09,27,06,54,9.10
2020,09,27,06,55,9.10
2020,09,27,06,56,9.20
2020,09,27,06,57,9.20
2020,09,27,06,58,9.20
2020,09,27,06,59,9.20
2020,09,27,07,00,9.20
2020,09,27,07,01,9.20
2020,09,27,07,02,9.20
2020,09,27,07,03,9.20
2020,09,27,07,04,9.20
2020,09,27,07,05,9.20
2020,09,27,07,06,9.20
2020,09,27,07,07,9.20
2020,09,27,07,08,9.20
2020,09,27,07,09,9.20
2020,09,27,07,10,9.20
2020,09,27,07,11,9.20
2020,09,27,07,12,9.20
2020,09,27,07,13,9.20
2020,09,27,07,14,9.20
2020,09,27,07,15,9.20
2020,09,27,07,16,9.20
2020,09,27,07,17,9.20
2020,09,27,07,18,9.20
2020,09,27,07,19,9.20
2020,09,27,07,20,9.20
2020,09,27,07,21,9.20
2020,09,27,07,22,9.20
2020,09,27,07,23,9.20
2020,09,27,07,24,9.30
2020,09,27,07,25,9.30
2020,09,27,07,26,9.30
2020,09,27,07,27,9.30
2020,09,27,07,28,9.30
2020,09,27,07,29,9.30
2020,09,27,07,30,9.30
2020,09,27,07,31,9.30
2020,09,27,07,32,9.40
2020,09,27,07,33,9.40
2020,09,27,07,34,9.40
2020,09,27,07,35,9.40
2020,09,27,07,36,9.40
2020,09,27,07,37,9.40
2020,09,27,07,38,9.50
2020,09,27,07,39,9.50
2020,09,27,07,40,9.50
2020,09,27,07,41,9.50
2020,09,27,07,42,9.50
2020,09,27,07,43,9.50
2020,09,27,07,44,9.50
2020,09,27,07,45,9.60
2020,09,27,07,46,9.60
2020,09,27,07,47,9.60
2020,09,27,07,48,9.60
2020,09,27,07,49,9.60
2020,09,27,07,50,9.70
2020,09,27,07,51,9.70
2020,09,27,07,52,9.70
2020,09,27,07,53,9.70
2020,09,27,07,54,9.70
2020,09,27,07,55,9.70
2020,09,27,07,56,9.70
2020,09,27,07,57,9.70
2020,09,27,07,58,9.70
2020,09,27,07,59,9.70
2020,09,27,08,00,9.70
2020,09,27,08,01,9.70
2020,09,27,08,02,9.70
2020,09,27,08,03,9.70
2020,09,27,08,04,9.70
2020,09,27,08,05,9.70
2020,09,27,08,06,9.70
2020,09,27,08,07,9.80
2020,09,27,08,08,9.80
2020,09,27,08,09,9.80
2020,09,27,08,10,9.80
2020,09,27,08,11,9.80
2020,09,27,08,12,9.90
2020,09,27,08,13,9.90
2020,09,27,08,14,9.90
2020,09,27,08,15,9.90
2020,09,27,08,16,9.90
2020,09,27,08,17,9.90
2020,09,27,08,18,9.90
2020,09,27,08,19,9.90
2020,09,27,08,20,10.00
2020,09,27,08,21,10.10
2020,09,27,08,22,10.10
2020,09,27,08,23,10.10
2020,09,27,08,24,10.10
2020,09,27,08,25,10.10
2020,09,27,08,26,10.10
2020,09,27,08,27,10.10
2020,09,27,08,28,10.10
2020,09,27,08,29,10.10
2020,09,27,08,30,10.20
2020,09,27,08,31,10.20
2020,09,27,08,32,10.20
2020,09,27,08,33,10.30
2020,09,27,08,34,10.30
2020,09,27,08,35,10.30
2020,09,27,08,36,10.40
2020,09,27,08,37,10.40
2020,09,27,08,38,10.40
2020,09,27,08,39,10.40
2020,09,27,08,40,10.40
2020,09,27,08,41,10.40
2020,09,27,08,42,10.40
2020,09,27,08,43,10.40
2020,09,27,08,44,10.40
2020,09,27,08,45,10.50
2020,09,27,08,46,10.60
2020,09,27,08,47,10.60
2020,09,27,08,48,10.60
2020,09,27,08,49,10.60
2020,09,27,08,50,10.60
2020,09,27,08,51,10.60
2020,09,27,08,52,10.60
2020,09,27,08,53,10.60
2020,09,27,08,54,10.60
2020,09,27,08,55,10.60
2020,09,27,08,56,10.70
2020,09,27,08,57,10.70
2020,09,27,08,58,10.70
2020,09,27,08,59,10.80
2020,09,27,09,00,10.80
2020,09,27,09,01,10.80
2020,09,27,09,02,10.90
2020,09,27,09,03,10.90
2020,09,27,09,04,10.90
2020,09,27,09,05,10.90
2020,09,27,09,06,10.90
2020,09,27,09,07,10.90
2020,09,27,09,08,10.90
2020,09,27,09,09,10.90
2020,09,27,09,10,10.90
2020,09,27,09,11,10.90
2020,09,27,09,12,10.90
2020,09,27,09,13,10.90
2020,09,27,09,14,10.90
2020,09,27,09,15,10.90
2020,09,27,09,16,10.90
2020,09,27,09,17,10.90
2020,09,27,09,18,11.00
2020,09,27,09,19,11.10
2020,09,27,09,20,11.10
2020,09,27,09,21,11.10
2020,09,27,09,22,11.10
2020,09,27,09,23,11.10
2020,09,27,09,24,11.10
2020,09,27,09,25,11.20
2020,09,27,09,26,11.20
2020,09,27,09,27,11.20
2020,09,27,09,28,11.20
2020,09,27,09,29,11.20
2020,09,27,09,30,11.20
2020,09,27,09,31,11.30
2020,09,27,09,32,11.30
2020,09,27,09,33,11.30
2020,09,27,09,34,11.30
2020,09,27,09,35,11.30
2020,09,27,09,36,11.30
2020,09,27,09,37,11.30
2020,09,27,09,38,11.20
2020,09,27,09,39,11.20
2020,09,27,09,40,11.20
2020,09,27,09,41,11.20
2020,09,27,09,42,11.20
2020,09,27,09,43,11.20
2020,09,27,09,44,11.20
2020,09,27,09,45,11.20
2020,09,27,09,46,11.30
2020,09,27,09,47,11.30
2020,09,27,09,48,11.30
2020,09,27,09,49,11.30
2020,09,27,09,50,11.40
2020,09,27,09,51,11.40
2020,09,27,09,52,11.40
2020,09,27,09,53,11.40
2020,09,27,09,54,11.40
2020,09,27,09,55,11.50
2020,09,27,09,56,11.60
2020,09,27,09,57,11.60
2020,09,27,09,58,11.70
2020,09,27,09,59,11.70
2020,09,27,10,00,11.80
2020,09,27,10,01,11.80
2020,09,27,10,02,11.80
2020,09,27,10,03,11.90
2020,09,27,10,04,11.90
2020,09,27,10,05,11.90
2020,09,27,10,06,11.90
2020,09,27,10,07,12.00
2020,09,27,10,08,12.00
2020,09,27,10,09,12.00
2020,09,27,10,10,12.00
2020,09,27,10,11,12.00
2020,09,27,10,12,12.00
2020,09,27,10,13,12.00
2020,09,27,10,14,12.10
2020,09,27,10,15,12.10
2020,09,27,10,16,12.20
2020,09,27,10,17,12.20
2020,09,27,10,18,12.30
2020,09,27,10,19,12.30
2020,09,27,10,20,12.30
2020,09,27,10,21,12.30
2020,09,27,10,22,12.30
2020,09,27,10,23,12.40
2020,09,27,10,24,12.40
2020,09,27,10,25,12.50
2020,09,27,10,26,12.50
2020,09,27,10,27,12.50
2020,09,27,10,28,12.60
2020,09,27,10,29,12.60
2020,09,27,10,30,12.70
2020,09,27,10,31,12.70
2020,09,27,10,32,12.80
2020,09,27,10,33,12.80
2020,09,27,10,34,12.80
2020,09,27,10,35,12.80
2020,09,27,10,36,12.80
2020,09,27,10,37,12.80
2020,09,27,10,38,12.90
2020,09,27,10,39,12.90
2020,09,27,10,40,13.00
2020,09,27,10,41,13.00
2020,09,27,10,42,13.10
2020,09,27,10,43,13.10
2020,09,27,10,44,13.20
2020,09,27,10,45,13.20
2020,09,27,10,46,13.20
2020,09,27,10,47,13.30
2020,09,27,10,48,13.30
2020,09,27,10,49,13.30
2020,09,27,10,50,13.30
2020,09,27,10,51,13.40
2020,09,27,10,52,13.50
2020,09,27,10,53,13.50
2020,09,27,10,54,13.60
2020,09,27,10,55,13.70
2020,09,27,10,56,13.70
2020,09,27,10,57,13.70
2020,09,27,10,58,13.80
2020,09,27,10,59,13.80
2020,09,27,11,00,13.90
2020,09,27,11,01,13.90
2020,09,27,11,02,13.90
2020,09,27,11,03,14.00
2020,09,27,11,04,14.10
2020,09,27,11,05,14.10
2020,09,27,11,06,14.20
2020,09,27,11,07,14.20
2020,09,27,11,08,14.20
2020,09,27,11,09,14.20
2020,09,27,11,10,14.20
2020,09,27,11,11,14.30
2020,09,27,11,12,14.30
2020,09,27,11,13,14.40
2020,09,27,11,14,14.40
2020,09,27,11,15,14.50
2020,09,27,11,16,14.60
2020,09,27,11,17,14.70
2020,09,27,11,18,14.80
2020,09,27,11,19,14.90
2020,09,27,11,20,14.90
2020,09,27,11,21,15.10
2020,09,27,11,22,15.20
2020,09,27,11,23,15.30
2020,09,27,11,24,15.30
2020,09,27,11,25,15.30
2020,09,27,11,26,15.30
2020,09,27,11,27,15.30
2020,09,27,11,28,15.30
2020,09,27,11,29,15.40
2020,09,27,11,30,15.50
2020,09,27,11,31,15.40
2020,09,27,11,32,15.40
2020,09,27,11,33,15.40
2020,09,27,11,34,15.40
2020,09,27,11,35,15.40
2020,09,27,11,36,15.40
2020,09,27,11,37,15.40
2020,09,27,11,38,15.40
2020,09,27,11,39,15.30
2020,09,27,11,40,15.30
2020,09,27,11,41,15.30
2020,09,27,11,42,15.30
2020,09,27,11,43,15.40
2020,09,27,11,44,15.40
2020,09,27,11,45,15.50
2020,09,27,11,46,15.50
2020,09,27,11,47,15.50
2020,09,27,11,48,15.50
2020,09,27,11,49,15.60
2020,09,27,11,50,15.60
2020,09,27,11,51,15.70
2020,09,27,11,52,15.80
2020,09,27,11,53,15.80
2020,09,27,11,54,15.90
2020,09,27,11,55,16.00
2020,09,27,11,56,16.10
2020,09,27,11,57,16.10
2020,09,27,11,58,16.10
2020,09,27,11,59,16.10
2020,09,27,12,00,16.10
2020,09,27,12,01,16.10
2020,09,27,12,02,16.10
2020,09,27,12,03,16.10
2020,09,27,12,04,16.20
2020,09,27,12,05,16.20
2020,09,27,12,06,16.30
2020,09,27,12,07,16.30
2020,09,27,12,08,16.30
2020,09,27,12,09,16.30
2020,09,27,12,10,16.30
2020,09,27,12,11,16.40
2020,09,27,12,12,16.40
2020,09,27,12,13,16.40
2020,09,27,12,14,16.40
2020,09,27,12,15,16.40
2020,09,27,12,16,16.40
2020,09,27,12,17,16.40
2020,09,27,12,18,16.40
2020,09,27,12,19,16.40
2020,09,27,12,20,16.50
2020,09,27,12,21,16.60
2020,09,27,12,22,16.60
2020,09,27,12,23,16.60
2020,09,27,12,24,16.60
2020,09,27,12,25,16.60
2020,09,27,12,26,16.50
2020,09,27,12,27,16.40
2020,09,27,12,28,16.40
2020,09,27,12,29,16.40
2020,09,27,12,30,16.40
2020,09,27,12,31,16.40
2020,09,27,12,32,16.40
2020,09,27,12,33,16.40
2020,09,27,12,34,16.40
2020,09,27,12,35,16.50
2020,09,27,12,36,16.60
2020,09,27,12,37,16.60
2020,09,27,12,38,16.60
2020,09,27,12,39,16.70
2020,09,27,12,40,16.70
2020,09,27,12,41,16.70
2020,09,27,12,42,16.80
2020,09,27,12,43,16.80
2020,09,27,12,44,16.90
2020,09,27,12,45,16.90
2020,09,27,12,46,16.90
2020,09,27,12,47,17.00
2020,09,27,12,48,17.00
2020,09,27,12,49,17.10
2020,09,27,12,50,17.10
2020,09,27,12,51,17.10
2020,09,27,12,52,17.10
2020,09,27,12,53,17.10
2020,09,27,12,54,17.10
2020,09,27,12,55,17.20
2020,09,27,12,56,17.20
2020,09,27,12,57,17.20
2020,09,27,12,58,17.20
2020,09,27,12,59,17.30
2020,09,27,13,00,17.30
2020,09,27,13,01,17.30
2020,09,27,13,02,17.30
2020,09,27,13,03,17.30
2020,09,27,13,04,17.30
2020,09,27,13,05,17.20
2020,09,27,13,06,17.20
2020,09,27,13,07,17.20
2020,09,27,13,08,17.00
2020,09,27,13,09,16.90
2020,09,27,13,10,16.90
2020,09,27,13,11,16.80
2020,09,27,13,12,16.80
2020,09,27,13,13,16.80
2020,09,27,13,14,16.80
2020,09,27,13,15,16.80
2020,09,27,13,16,16.90
2020,09,27,13,17,16.90
2020,09,27,13,18,17.00
2020,09,27,13,19,17.10
2020,09,27,13,20,17.20
2020,09,27,13,21,17.20
2020,09,27,13,22,17.30
2020,09,27,13,23,17.30
2020,09,27,13,24,17.40
2020,09,27,13,25,17.40
2020,09,27,13,26,17.50
2020,09,27,13,27,17.60
2020,09,27,13,28,17.60
2020,09,27,13,29,17.60
2020,09,27,13,30,17.70
2020,09,27,13,31,17.70
2020,09,27,13,32,17.80
2020,09,27,13,33,17.80
2020,09,27,13,34,17.90
2020,09,27,13,35,18.00
2020,09,27,13,36,18.10
2020,09,27,13,37,18.10
2020,09,27,13,38,18.20
2020,09,27,13,39,18.10
2020,09,27,13,40,18.10
2020,09,27,13,41,18.10
2020,09,27,13,42,18.00
2020,09,27,13,43,17.90
2020,09,27,13,44,17.90
2020,09,27,13,45,17.90
2020,09,27,13,46,17.90
2020,09,27,13,47,17.90
2020,09,27,13,48,17.90
2020,09,27,13,49,17.90
2020,09,27,13,50,17.90
2020,09,27,13,51,18.00
2020,09,27,13,52,18.10
2020,09,27,13,53,18.10
2020,09,27,13,54,18.10
2020,09,27,13,55,18.00
2020,09,27,13,56,17.90
2020,09,27,13,57,17.90
2020,09,27,13,58,17.90
2020,09,27,13,59,18.00
2020,09,27,14,00,18.10
2020,09,27,14,01,18.10
2020,09,27,14,02,18.20
2020,09,27,14,03,18.20
2020,09,27,14,04,18.20
2020,09,27,14,05,18.10
2020,09,27,14,06,18.10
2020,09,27,14,07,18.10
2020,09,27,14,08,18.10
2020,09,27,14,09,18.10
2020,09,27,14,10,18.10
2020,09,27,14,11,18.10
2020,09,27,14,12,18.10
2020,09,27,14,13,18.10
2020,09,27,14,14,18.10
2020,09,27,14,15,18.00
2020,09,27,14,16,17.90
2020,09,27,14,17,17.90
2020,09,27,14,18,18.00
2020,09,27,14,19,18.10
2020,09,27,14,20,18.10
2020,09,27,14,21,18.10
2020,09,27,14,22,18.10
2020,09,27,14,23,18.10
2020,09,27,14,24,18.10
2020,09,27,14,25,18.10
2020,09,27,14,26,18.10
2020,09,27,14,27,18.10
2020,09,27,14,28,18.20
2020,09,27,14,29,18.20
2020,09,27,14,30,18.20
2020,09,27,14,31,18.10
2020,09,27,14,32,18.10
2020,09,27,14,33,18.10
2020,09,27,14,34,18.00
2020,09,27,14,35,17.90
2020,09,27,14,36,17.90
2020,09,27,14,37,17.90
2020,09,27,14,38,17.90
2020,09,27,14,39,17.90
2020,09,27,14,40,17.90
2020,09,27,14,41,17.90
2020,09,27,14,42,17.90
2020,09,27,14,43,17.90
2020,09,27,14,44,18.10
2020,09,27,14,45,18.10
2020,09,27,14,46,18.10
2020,09,27,14,47,18.10
2020,09,27,14,48,18.10
2020,09,27,14,49,18.10
2020,09,27,14,50,18.10
2020,09,27,14,51,18.00
2020,09,27,14,52,18.00
2020,09,27,14,53,18.10
2020,09,27,14,54,18.10
2020,09,27,14,55,18.10
2020,09,27,14,56,18.10
2020,09,27,14,57,18.10
2020,09,27,14,58,18.10
2020,09,27,14,59,18.20
2020,09,27,15,00,18.10
2020,09,27,15,01,18.10
2020,09,27,15,02,18.00
2020,09,27,15,03,17.90
2020,09,27,15,04,17.90
2020,09,27,15,05,17.90
2020,09,27,15,06,17.90
2020,09,27,15,07,17.90
2020,09,27,15,08,17.90
2020,09,27,15,09,17.80
2020,09,27,15,10,17.80
2020,09,27,15,11,17.80
2020,09,27,15,12,17.80
2020,09,27,15,13,17.70
2020,09,27,15,14,17.70
2020,09,27,15,15,17.70
2020,09,27,15,16,17.60
2020,09,27,15,17,17.60
2020,09,27,15,18,17.50
2020,09,27,15,19,17.40
2020,09,27,15,20,17.40
2020,09,27,15,21,17.30
2020,09,27,15,22,17.30
2020,09,27,15,23,17.40
2020,09,27,15,24,17.40
2020,09,27,15,25,17.40
2020,09,27,15,26,17.50
2020,09,27,15,27,17.50
2020,09,27,15,28,17.50
2020,09,27,15,29,17.50
2020,09,27,15,30,17.50
2020,09,27,15,31,17.50
2020,09,27,15,32,17.60
2020,09,27,15,33,17.60
2020,09,27,15,34,17.50
2020,09,27,15,35,17.50
2020,09,27,15,36,17.50
2020,09,27,15,37,17.50
2020,09,27,15,38,17.50
2020,09,27,15,39,17.50
2020,09,27,15,40,17.60
2020,09,27,15,41,17.60
2020,09,27,15,42,17.60
2020,09,27,15,43,17.60
2020,09,27,15,44,17.60
2020,09,27,15,45,17.60
2020,09,27,15,46,17.60
2020,09,27,15,47,17.60
2020,09,27,15,48,17.60
2020,09,27,15,49,17.60
2020,09,27,15,50,17.60
2020,09,27,15,51,17.50
2020,09,27,15,52,17.50
2020,09,27,15,53,17.50
2020,09,27,15,54,17.40
2020,09,27,15,55,17.40
2020,09,27,15,56,17.30
2020,09,27,15,57,17.30
2020,09,27,15,58,17.30
2020,09,27,15,59,17.30
2020,09,27,16,00,17.30
2020,09,27,16,01,17.30
2020,09,27,16,02,17.30
2020,09,27,16,03,17.30
2020,09,27,16,04,17.20
2020,09,27,16,05,17.10
2020,09,27,16,06,17.00
2020,09,27,16,07,16.90
2020,09,27,16,08,16.80
2020,09,27,16,09,16.70
2020,09,27,16,10,16.60
2020,09,27,16,11,16.50
2020,09,27,16,12,16.40
2020,09,27,16,13,16.40
2020,09,27,16,14,16.20
2020,09,27,16,15,16.10
2020,09,27,16,16,16.10
2020,09,27,16,17,15.90
2020,09,27,16,18,15.70
2020,09,27,16,19,15.60
2020,09,27,16,20,15.50
2020,09,27,16,21,15.50
2020,09,27,16,22,15.40
2020,09,27,16,23,15.30
2020,09,27,16,24,15.30
2020,09,27,16,25,15.20
2020,09,27,16,26,15.10
2020,09,27,16,27,15.00
2020,09,27,16,28,14.90
2020,09,27,16,29,14.80
2020,09,27,16,30,14.80
2020,09,27,16,31,14.80
2020,09,27,16,32,14.70
2020,09,27,16,33,14.70
2020,09,27,16,34,14.60
2020,09,27,16,35,14.60
2020,09,27,16,36,14.50
2020,09,27,16,37,14.50
2020,09,27,16,38,14.40
2020,09,27,16,39,14.40
2020,09,27,16,40,14.40
2020,09,27,16,41,14.40
2020,09,27,16,42,14.30
2020,09,27,16,43,14.30
2020,09,27,16,44,14.30
2020,09,27,16,45,14.30
2020,09,27,16,46,14.30
2020,09,27,16,47,14.30
2020,09,27,16,48,14.30
2020,09,27,16,49,14.30
2020,09,27,16,50,14.30
2020,09,27,16,51,14.30
2020,09,27,16,52,14.30
2020,09,27,16,53,14.30
2020,09,27,16,54,14.30
2020,09,27,16,55,14.30
2020,09,27,16,56,14.30
2020,09,27,16,57,14.30
2020,09,27,16,58,14.40
2020,09,27,16,59,14.40
2020,09,27,17,00,14.40
2020,09,27,17,01,14.30
2020,09,27,17,02,14.30
2020,09,27,17,03,14.30
2020,09,27,17,04,14.30
2020,09,27,17,05,14.30
2020,09,27,17,06,14.30
2020,09,27,17,07,14.30
2020,09,27,17,08,14.30
2020,09,27,17,09,14.30
2020,09,27,17,10,14.30
2020,09,27,17,11,14.30
2020,09,27,17,12,14.30
2020,09,27,17,13,14.30
2020,09,27,17,14,14.30
2020,09,27,17,15,14.30
2020,09,27,17,16,14.30
2020,09,27,17,17,14.40
2020,09,27,17,18,14.40
2020,09,27,17,19,14.40
2020,09,27,17,20,14.40
2020,09,27,17,21,14.40
2020,09,27,17,22,14.40
2020,09,27,17,23,14.40
2020,09,27,17,24,14.40
2020,09,27,17,25,14.40
2020,09,27,17,26,14.40
2020,09,27,17,27,14.40
2020,09,27,17,28,14.40
2020,09,27,17,29,14.40
2020,09,27,17,30,14.40
2020,09,27,17,31,14.40
2020,09,27,17,32,14.50
2020,09,27,17,33,14.50
2020,09,27,17,34,14.50
2020,09,27,17,35,14.50
2020,09,27,17,36,14.50
2020,09,27,17,37,14.50
2020,09,27,17,38,14.50
2020,09,27,17,39,14.50
2020,09,27,17,40,14.50
2020,09,27,17,41,14.50
2020,09,27,17,42,14.50
2020,09,27,17,43,14.50
2020,09,27,17,44,14.40
2020,09,27,17,45,14.40
2020,09,27,17,46,14.40
2020,09,27,17,47,14.40
2020,09,27,17,48,14.40
2020,09,27,17,49,14.40
2020,09,27,17,50,14.40
2020,09,27,17,51,14.40
2020,09,27,17,52,14.40
2020,09,27,17,53,14.40
2020,09,27,17,54,14.40
2020,09,27,17,55,14.40
2020,09,27,17,56,14.40
2020,09,27,17,57,14.40